EW1963 Weather Reports


Display with metric or nautical units.
time (UTC)temp
F
wind
direction
speed
MPH
gust
MPH
rain 1hr
in
rain 24hr
in
rain mn
in
humidity
%
barometer
mb
20260506010206 83 221 0.0 0.0 0.00 0.00 0.00 77 1004.4
20260506005706 83 221 0.0 0.0 0.00 0.00 0.00 77 1004.4
20260506005206 83 221 0.0 0.0 0.00 0.00 0.00 77 1004.4
20260506004707 83 221 0.0 0.0 0.00 0.00 0.00 77 1004.4
20260506004207 83 221 0.0 4.0 0.00 0.00 0.00 76 1004.2
20260506003706 83 221 0.0 4.0 0.00 0.00 0.00 76 1004.2
20260506003206 83 221 0.0 4.0 0.00 0.00 0.00 75 1004.2
20260506002706 83 221 0.0 0.0 0.00 0.00 0.00 75 1004.2
20260506001705 83 221 0.0 0.0 0.00 0.00 0.00 76 1004.2
20260506001206 83 218 0.0 0.0 0.00 0.00 0.00 76 1004.1
20260506000706 83 218 0.0 0.0 0.00 0.00 0.00 76 1004.1
20260506000207 83 218 0.0 1.0 0.00 0.00 0.00 76 1004.1
20260505235706 83 218 0.0 1.0 0.00 0.00 0.00 75 1004.1
20260505235206 83 218 0.0 2.0 0.00 0.00 0.00 75 1004.0
20260505234706 83 218 0.0 2.0 0.00 0.00 0.00 75 1004.0
20260505234207 83 218 0.0 1.0 0.00 0.00 0.00 75 1003.9
20260505233706 83 218 0.0 0.0 0.00 0.00 0.00 75 1003.9
20260505232705 84 218 0.0 2.0 0.00 0.00 0.00 74 1004.0
20260505232210 84 218 0.0 5.0 0.00 0.00 0.00 74 1004.0
20260505231707 84 220 0.0 5.0 0.00 0.00 0.00 74 1003.9
20260505231206 84 220 0.0 5.0 0.00 0.00 0.00 73 1004.0
20260505230207 84 232 0.0 5.0 0.00 0.00 0.00 73 1003.7
20260505225706 84 222 0.0 5.0 0.00 0.00 0.00 73 1003.6
20260505224207 84 219 0.0 5.0 0.00 0.00 0.00 73 1003.6
20260505223206 85 213 0.0 5.0 0.00 0.00 0.00 72 1003.6
20260505222705 85 211 0.0 5.0 0.00 0.00 0.00 71 1003.6
20260505222206 85 212 0.0 5.0 0.00 0.00 0.00 71 1003.6
20260505221706 85 209 0.0 4.0 0.00 0.00 0.00 71 1003.6
20260505221206 85 208 0.0 5.0 0.00 0.00 0.00 71 1003.7
20260505220705 85 205 1.0 6.0 0.00 0.00 0.00 71 1003.7
20260505220207 85 203 1.0 6.0 0.00 0.00 0.00 70 1003.9
20260505215707 85 215 1.0 6.0 0.00 0.00 0.00 71 1004.0
20260505215206 85 207 1.0 5.0 0.00 0.00 0.00 72 1004.2
20260505214707 85 215 1.0 5.0 0.00 0.00 0.00 72 1004.2
20260505214207 84 215 1.0 5.0 0.00 0.00 0.00 72 1004.1
20260505213706 85 215 0.0 5.0 0.00 0.00 0.00 73 1004.3
20260505213206 84 214 0.0 5.0 0.00 0.00 0.00 73 1004.4
20260505212707 84 214 0.0 5.0 0.00 0.00 0.00 74 1004.4
20260505212206 84 214 0.0 5.0 0.00 0.00 0.00 73 1004.4
20260505211705 84 213 0.0 5.0 0.00 0.00 0.00 74 1004.3
20260505211207 84 213 0.0 5.0 0.00 0.00 0.00 73 1004.4
20260505210706 84 215 0.0 6.0 0.00 0.00 0.00 74 1004.4
20260505210207 84 215 0.0 6.0 0.00 0.00 0.00 73 1004.5
20260505205706 85 214 1.0 6.0 0.00 0.00 0.00 71 1004.5
20260505205206 85 211 1.0 6.0 0.00 0.00 0.00 72 1004.5
20260505204706 84 211 1.0 6.0 0.00 0.00 0.00 72 1004.7
20260505204207 84 211 1.0 5.0 0.00 0.00 0.00 73 1004.8
20260505203706 83 225 1.0 6.0 0.00 0.00 0.00 74 1005.1
20260505203206 83 209 1.0 7.0 0.00 0.00 0.00 74 1005.2
20260505202706 83 223 1.0 7.0 0.00 0.00 0.00 74 1005.4
20260505202207 83 213 1.0 7.0 0.00 0.00 0.00 74 1005.3
20260505201705 83 211 1.0 3.0 0.00 0.00 0.00 73 1005.4
20260505201206 83 281 0.0 7.0 0.00 0.00 0.00 74 1005.6
20260505200706 83 218 0.0 7.0 0.00 0.00 0.00 74 1005.6
20260505195705 83 194 0.0 9.0 0.00 0.00 0.00 76 1005.6
20260505195206 82 189 1.0 9.0 0.00 0.00 0.00 75 1005.7
20260505194705 82 209 1.0 9.0 0.00 0.00 0.00 75 1005.8
20260505194206 82 215 1.0 4.0 0.00 0.00 0.00 75 1005.8
20260505193207 82 225 1.0 7.0 0.00 0.00 0.00 77 1005.9
20260505192706 81 217 2.0 7.0 0.00 0.00 0.00 76 1005.9
20260505192207 82 213 2.0 6.0 0.00 0.00 0.00 76 1005.9
20260505191706 82 218 1.0 5.0 0.00 0.00 0.00 76 1006.0
20260505191206 82 218 0.0 6.0 0.00 0.00 0.00 77 1006.0
20260505190705 81 217 1.0 7.0 0.00 0.00 0.00 77 1006.0
20260505185706 80 214 1.0 7.0 0.00 0.00 0.00 78 1006.1
20260505185206 80 219 0.0 6.0 0.00 0.00 0.00 78 1006.2
20260505184706 80 234 1.0 6.0 0.00 0.00 0.00 78 1006.2
20260505184207 80 235 1.0 6.0 0.00 0.00 0.00 78 1006.3
20260505183706 80 222 1.0 6.0 0.00 0.00 0.00 79 1006.5
20260505183206 79 230 1.0 5.0 0.00 0.00 0.00 79 1006.5